When you browse on this site, cookies collect data to enhance your experience and personalize the content and advertising you see.
Visit our Privacy Policy to learn more. By continuing to use the site, you agree to this use of cookies and data.
  • în România
  • Lista ţărilor
  • Pe 7 zile
  • Temperatura apei
  • Hartă satelitară
  • Meteo pe hartă
  • Widget-uri
  • user-avatar
    Intrare

    Meteo pe oră la Matlock

    Astăzi, 18 Aprilie, Joi

    Timp Temperatura Precipitaţii Vânt Presiune Umiditate
    00:00 +7°C° 0 mm 3 m/s 750 mmHg 97%
    01:00 +5°C° 0 mm 3 m/s 750 mmHg 97%
    02:00 +5°C° 0 mm 3 m/s 750 mmHg 97%
    03:00 +5°C° 0 mm 3 m/s 751 mmHg 97%
    04:00 +6°C° 0 mm 2 m/s 751 mmHg 97%
    05:00 +6°C° 0 mm 2 m/s 751 mmHg 97%
    06:00 +6°C° 0 mm 2 m/s 751 mmHg 95%
    07:00 +8°C° 0 mm 3 m/s 752 mmHg 90%
    08:00 +8°C° 0 mm 4 m/s 752 mmHg 86%
    09:00 +11°C° 0 mm 4 m/s 752 mmHg 82%
    10:00 +13°C° 0 mm 5 m/s 752 mmHg 77%
    11:00 +14°C° 0 mm 5 m/s 752 mmHg 72%
    12:00 +16°C° 0 mm 5 m/s 752 mmHg 67%
    13:00 +16°C° 0 mm 5 m/s 752 mmHg 66%
    14:00 +17°C° 0 mm 5 m/s 752 mmHg 65%
    15:00 +17°C° 0 mm 5 m/s 752 mmHg 64%
    16:00 +16°C° 0 mm 5 m/s 752 mmHg 69%
    17:00 +15°C° 0 mm 5 m/s 752 mmHg 73%
    18:00 +14°C° 0 mm 4 m/s 753 mmHg 78%
    19:00 +13°C° 0 mm 4 m/s 753 mmHg 82%
    20:00 +11°C° 0 mm 3 m/s 754 mmHg 85%
    21:00 +10°C° 0 mm 3 m/s 754 mmHg 89%
    22:00 +9°C° 0 mm 3 m/s 754 mmHg 90%
    23:00 +8°C° 0 mm 3 m/s 755 mmHg 90%

    Mâine, 19 Aprilie, Vineri

    Timp Temperatura Precipitaţii Vânt Presiune Umiditate
    00:00 +8°C° 0 mm 2 m/s 755 mmHg 90%
    01:00 +7°C° 0 mm 3 m/s 755 mmHg 91%
    02:00 +7°C° 0 mm 3 m/s 755 mmHg 92%
    03:00 +7°C° 0 mm 3 m/s 755 mmHg 93%
    04:00 +7°C° 0 mm 3 m/s 755 mmHg 92%
    05:00 +7°C° 0 mm 3 m/s 755 mmHg 92%
    06:00 +7°C° 0 mm 3 m/s 756 mmHg 92%
    07:00 +9°C° 0 mm 3 m/s 756 mmHg 86%
    08:00 +11°C° 0 mm 3 m/s 756 mmHg 81%
    09:00 +13°C° 0 mm 3 m/s 756 mmHg 76%
    10:00 +15°C° 0 mm 4 m/s 756 mmHg 71%
    11:00 +17°C° 0 mm 4 m/s 757 mmHg 67%
    12:00 +19°C° 0 mm 4 m/s 757 mmHg 63%
    13:00 +19°C° 0 mm 4 m/s 757 mmHg 62%
    14:00 +19°C° 0 mm 4 m/s 757 mmHg 61%
    15:00 +19°C° 0 mm 3 m/s 756 mmHg 61%
    16:00 +18°C° 0 mm 3 m/s 756 mmHg 67%
    17:00 +17°C° 0 mm 3 m/s 756 mmHg 72%
    18:00 +16°C° 0 mm 3 m/s 756 mmHg 78%
    19:00 +14°C° 0 mm 2 m/s 757 mmHg 82%
    20:00 +12°C° 0 mm 2 m/s 757 mmHg 86%
    21:00 +9°C° 0 mm 2 m/s 758 mmHg 90%
    22:00 +9°C° 0 mm 2 m/s 758 mmHg 89%
    23:00 +8°C° 0 mm 2 m/s 757 mmHg 89%

    Poimâine, 20 Aprilie, Sâmbătă

    Timp Temperatura Precipitaţii Vânt Presiune Umiditate
    00:00 +8°C° 0 mm 1 m/s 757 mmHg 89%
    01:00 +8°C° 0 mm 1 m/s 757 mmHg 88%
    02:00 +8°C° 0 mm 1 m/s 757 mmHg 88%
    03:00 +8°C° 0 mm 1 m/s 757 mmHg 88%
    04:00 +8°C° 0 mm 1 m/s 757 mmHg 87%
    05:00 +8°C° 0 mm 1 m/s 757 mmHg 87%
    06:00 +9°C° 0 mm 1 m/s 757 mmHg 87%
    07:00 +11°C° 0 mm 1 m/s 757 mmHg 82%
    08:00 +13°C° 0 mm 2 m/s 757 mmHg 76%
    09:00 +15°C° 0 mm 2 m/s 757 mmHg 71%
    10:00 +16°C° 0 mm 2 m/s 757 mmHg 67%
    11:00 +18°C° 0 mm 2 m/s 757 mmHg 63%
    12:00 +19°C° 0 mm 2 m/s 757 mmHg 60%
    13:00 +19°C° 0 mm 2 m/s 756 mmHg 58%
    14:00 +20°C° 0 mm 2 m/s 756 mmHg 56%
    15:00 +21°C° 0 mm 1 m/s 756 mmHg 54%
    16:00 +20°C° 0 mm 1 m/s 755 mmHg 59%
    17:00 +19°C° 0 mm 2 m/s 755 mmHg 64%
    18:00 +18°C° 0 mm 2 m/s 755 mmHg 70%
    19:00 +16°C° 0 mm 2 m/s 755 mmHg 75%
    20:00 +14°C° 0 mm 2 m/s 755 mmHg 81%
    21:00 +12°C° 0 mm 2 m/s 755 mmHg 87%
    22:00 +11°C° 0 mm 1 m/s 755 mmHg 87%
    23:00 +10°C° 0 mm 1 m/s 754 mmHg 87%

    21 Aprilie, Duminică

    Timp Temperatura Precipitaţii Vânt Presiune Umiditate
    00:00 +10°C° 0 mm 1 m/s 754 mmHg 87%
    01:00 +9°C° 0 mm 1 m/s 754 mmHg 87%
    02:00 +9°C° 0 mm 1 m/s 753 mmHg 86%
    03:00 +7°C° 0 mm 0 m/s 753 mmHg 85%
    04:00 +8°C° 0 mm 0 m/s 752 mmHg 84%
    05:00 +8°C° 0 mm 0 m/s 752 mmHg 83%
    06:00 +8°C° 0 mm 0 m/s 752 mmHg 82%
    07:00 +11°C° 0 mm 1 m/s 752 mmHg 76%
    08:00 +13°C° 0 mm 1 m/s 751 mmHg 71%
    09:00 +15°C° 0 mm 2 m/s 751 mmHg 66%
    10:00 +16°C° 0 mm 2 m/s 751 mmHg 62%
    11:00 +17°C° 0 mm 2 m/s 750 mmHg 58%
    12:00 +18°C° 0 mm 2 m/s 750 mmHg 54%
    13:00 +18°C° 0 mm 3 m/s 749 mmHg 54%
    14:00 +19°C° 0 mm 3 m/s 748 mmHg 54%
    15:00 +19°C° 0 mm 3 m/s 748 mmHg 54%
    16:00 +18°C° 0 mm 3 m/s 747 mmHg 59%
    17:00 +18°C° 0 mm 2 m/s 747 mmHg 64%
    18:00 +17°C° 0 mm 2 m/s 746 mmHg 69%
    19:00 +16°C° 0 mm 2 m/s 746 mmHg 74%
    20:00 +14°C° 0 mm 2 m/s 746 mmHg 78%
    21:00 +12°C° 0 mm 2 m/s 746 mmHg 82%
    22:00 +12°C° 0 mm 2 m/s 746 mmHg 84%
    23:00 +10°C° 0 mm 2 m/s 745 mmHg 86%

    22 Aprilie, Luni

    Timp Temperatura Precipitaţii Vânt Presiune Umiditate
    00:00 +9°C° 0 mm 2 m/s 745 mmHg 88%
    01:00 +9°C° 0 mm 2 m/s 744 mmHg 86%
    02:00 +8°C° 0 mm 2 m/s 744 mmHg 83%
    03:00 +7°C° 0 mm 2 m/s 744 mmHg 80%
    04:00 +7°C° 0 mm 2 m/s 743 mmHg 80%
    05:00 +7°C° 0 mm 2 m/s 743 mmHg 80%
    06:00 +8°C° 0 mm 1 m/s 743 mmHg 80%
    07:00 +9°C° 0 mm 2 m/s 743 mmHg 77%
    08:00 +12°C° 0 mm 2 m/s 743 mmHg 73%
    09:00 +13°C° 0 mm 3 m/s 743 mmHg 69%
    10:00 +16°C° 0 mm 3 m/s 742 mmHg 67%
    11:00 +17°C° 0 mm 4 m/s 742 mmHg 65%
    12:00 +19°C° 0 mm 4 m/s 742 mmHg 63%
    13:00 +19°C° 0 mm 4 m/s 742 mmHg 62%
    14:00 +19°C° 0 mm 4 m/s 741 mmHg 61%
    15:00 +19°C° 0 mm 4 m/s 741 mmHg 60%
    16:00 +18°C° 0 mm 4 m/s 741 mmHg 64%
    17:00 +17°C° 0 mm 4 m/s 741 mmHg 68%
    18:00 +15°C° 0 mm 4 m/s 740 mmHg 72%
    19:00 +13°C° 0 mm 4 m/s 741 mmHg 75%
    20:00 +11°C° 0 mm 3 m/s 741 mmHg 77%
    21:00 +9°C° 0 mm 3 m/s 741 mmHg 80%
    22:00 +9°C° 0 mm 3 m/s 741 mmHg 83%
    23:00 +8°C° 0 mm 2 m/s 740 mmHg 87%

    23 Aprilie, Marţi

    Timp Temperatura Precipitaţii Vânt Presiune Umiditate
    00:00 +7°C° 0 mm 2 m/s 740 mmHg 90%
    01:00 +7°C° 0 mm 2 m/s 740 mmHg 91%
    02:00 +7°C° 0 mm 3 m/s 740 mmHg 91%
    03:00 +7°C° 0 mm 3 m/s 740 mmHg 91%
    04:00 +7°C° 0 mm 3 m/s 740 mmHg 91%
    05:00 +7°C° 0 mm 3 m/s 740 mmHg 92%
    06:00 +7°C° 0 mm 4 m/s 740 mmHg 92%
    07:00 +8°C° 0 mm 4 m/s 740 mmHg 87%
    08:00 +11°C° 0 mm 4 m/s 740 mmHg 82%
    09:00 +13°C° 0 mm 5 m/s 740 mmHg 76%
    10:00 +14°C° 0 mm 5 m/s 740 mmHg 72%
    11:00 +15°C° 0 mm 5 m/s 740 mmHg 68%
    12:00 +16°C° 0 mm 6 m/s 740 mmHg 64%
    13:00 +16°C° 0 mm 6 m/s 740 mmHg 63%
    14:00 +16°C° 0 mm 6 m/s 740 mmHg 63%
    15:00 +16°C° 0 mm 6 m/s 740 mmHg 62%
    16:00 +15°C° 0 mm 5 m/s 740 mmHg 64%
    17:00 +13°C° 0 mm 5 m/s 740 mmHg 67%
    18:00 +12°C° 0 mm 5 m/s 740 mmHg 70%
    19:00 +10°C° 0 mm 4 m/s 741 mmHg 75%
    20:00 +7°C° 0 mm 4 m/s 741 mmHg 79%
    21:00 +6°C° 0 mm 4 m/s 742 mmHg 84%
    22:00 +5°C° 0 mm 3 m/s 742 mmHg 88%
    23:00 +5°C° 0 mm 2 m/s 742 mmHg 91%
    Arată mai mult